When you browse on this site, cookies collect data to enhance your experience and personalize the content and advertising you see.
Visit our Privacy Policy to learn more. By continuing to use the site, you agree to this use of cookies and data.
  • In Lithuania
  • List of Countries
  • For 7 days
  • Water Temperature
  • Satellite Maps
  • Weather Map
  • Weather Widgets
  • user-avatar
    Login

    Hourly Weather Perth

    Today, 22 May, Wednesday

    Time Temperature Precipitation Wind Pressure Humidity
    00:00 +16°C° 0 mm 2 mps 766 mmHg 73%
    01:00 +15°C° 0 mm 2 mps 766 mmHg 76%
    02:00 +14°C° 0 mm 2 mps 766 mmHg 79%
    03:00 +14°C° 0 mm 2 mps 765 mmHg 79%
    04:00 +14°C° 0 mm 2 mps 765 mmHg 79%
    05:00 +13°C° 0 mm 2 mps 765 mmHg 79%
    06:00 +14°C° 0 mm 2 mps 765 mmHg 78%
    07:00 +14°C° 0 mm 2 mps 766 mmHg 76%
    08:00 +15°C° 0 mm 2 mps 766 mmHg 72%
    09:00 +17°C° 0 mm 2 mps 766 mmHg 64%
    10:00 +20°C° 0 mm 1 mps 765 mmHg 55%
    11:00 +20°C° 0 mm 0 mps 765 mmHg 47%
    12:00 +23°C° 0 mm 1 mps 765 mmHg 45%
    13:00 +23°C° 0 mm 2 mps 764 mmHg 44%
    14:00 +23°C° 0 mm 2 mps 764 mmHg 42%
    15:00 +21°C° 0 mm 2 mps 764 mmHg 48%
    16:00 +20°C° 0 mm 3 mps 764 mmHg 53%
    17:00 +19°C° 0 mm 3 mps 764 mmHg 58%
    18:00 +18°C° 0 mm 3 mps 764 mmHg 63%
    19:00 +17°C° 0 mm 2 mps 764 mmHg 69%
    20:00 +16°C° 0 mm 2 mps 765 mmHg 75%
    21:00 +16°C° 0 mm 2 mps 765 mmHg 76%
    22:00 +16°C° 0 mm 2 mps 765 mmHg 77%
    23:00 +15°C° 0 mm 2 mps 765 mmHg 78%

    Tomorrow, 23 May, Thursday

    Time Temperature Precipitation Wind Pressure Humidity
    00:00 +16°C° 0 mm 1 mps 765 mmHg 76%
    01:00 +16°C° 0 mm 1 mps 765 mmHg 74%
    02:00 +16°C° 0 mm 1 mps 765 mmHg 72%
    03:00 +16°C° 0 mm 1 mps 765 mmHg 74%
    04:00 +15°C° 0 mm 0 mps 766 mmHg 75%
    05:00 +14°C° 0 mm 0 mps 766 mmHg 77%
    06:00 +15°C° 0 mm 0 mps 766 mmHg 77%
    07:00 +16°C° 0 mm 1 mps 766 mmHg 76%
    08:00 +16°C° 0 mm 1 mps 767 mmHg 76%
    09:00 +18°C° 0 mm 1 mps 767 mmHg 72%
    10:00 +20°C° 0 mm 1 mps 767 mmHg 68%
    11:00 +19°C° 0 mm 0 mps 767 mmHg 64%
    12:00 +21°C° 0 mm 1 mps 767 mmHg 62%
    13:00 +21°C° 0 mm 2 mps 766 mmHg 59%
    14:00 +21°C° 0 mm 2 mps 766 mmHg 56%
    15:00 +21°C° 0 mm 2 mps 766 mmHg 58%
    16:00 +20°C° 0 mm 2 mps 766 mmHg 60%
    17:00 +20°C° 0 mm 2 mps 766 mmHg 62%
    18:00 +19°C° 0 mm 2 mps 766 mmHg 67%
    19:00 +18°C° 0 mm 2 mps 767 mmHg 71%
    20:00 +17°C° 0 mm 2 mps 767 mmHg 76%
    21:00 +16°C° 0 mm 2 mps 767 mmHg 78%
    22:00 +16°C° 0 mm 2 mps 767 mmHg 81%
    23:00 +16°C° 0 mm 2 mps 767 mmHg 83%

    Day after tomorrow, 24 May, Friday

    Time Temperature Precipitation Wind Pressure Humidity
    00:00 +15°C° 0 mm 1 mps 767 mmHg 84%
    01:00 +15°C° 0 mm 1 mps 767 mmHg 85%
    02:00 +15°C° 0 mm 1 mps 767 mmHg 86%
    03:00 +14°C° 0 mm 1 mps 767 mmHg 87%
    04:00 +14°C° 0 mm 1 mps 767 mmHg 87%
    05:00 +14°C° 0 mm 1 mps 767 mmHg 88%
    06:00 +14°C° 0 mm 1 mps 767 mmHg 87%
    07:00 +14°C° 0 mm 1 mps 767 mmHg 87%
    08:00 +15°C° 0 mm 1 mps 767 mmHg 86%
    09:00 +18°C° 0 mm 1 mps 767 mmHg 76%
    10:00 +19°C° 0 mm 1 mps 767 mmHg 66%
    11:00 +21°C° 0 mm 1 mps 768 mmHg 56%
    12:00 +21°C° 0 mm 2 mps 767 mmHg 55%
    13:00 +21°C° 0 mm 3 mps 766 mmHg 53%
    14:00 +22°C° 0 mm 4 mps 766 mmHg 52%
    15:00 +21°C° 0 mm 4 mps 766 mmHg 56%
    16:00 +20°C° 0 mm 3 mps 766 mmHg 60%
    17:00 +19°C° 0 mm 3 mps 766 mmHg 64%
    18:00 +18°C° 0 mm 3 mps 766 mmHg 69%
    19:00 +17°C° 0 mm 2 mps 767 mmHg 73%
    20:00 +16°C° 0 mm 2 mps 767 mmHg 78%
    21:00 +16°C° 0 mm 2 mps 767 mmHg 80%
    22:00 +16°C° 0 mm 2 mps 768 mmHg 83%
    23:00 +16°C° 0 mm 2 mps 768 mmHg 85%

    25 May, Saturday

    Time Temperature Precipitation Wind Pressure Humidity
    00:00 +15°C° 0 mm 2 mps 768 mmHg 85%
    01:00 +15°C° 0 mm 2 mps 767 mmHg 86%
    02:00 +14°C° 0 mm 2 mps 767 mmHg 87%
    03:00 +14°C° 0 mm 2 mps 767 mmHg 86%
    04:00 +14°C° 0 mm 2 mps 767 mmHg 85%
    05:00 +13°C° 0 mm 2 mps 767 mmHg 84%
    06:00 +13°C° 0 mm 2 mps 767 mmHg 83%
    07:00 +14°C° 0 mm 2 mps 768 mmHg 83%
    08:00 +14°C° 0 mm 2 mps 768 mmHg 82%
    09:00 +16°C° 0 mm 2 mps 768 mmHg 73%
    10:00 +17°C° 0 mm 3 mps 768 mmHg 63%
    11:00 +19°C° 0 mm 3 mps 768 mmHg 54%
    12:00 +20°C° 0 mm 3 mps 767 mmHg 51%
    13:00 +21°C° 0 mm 3 mps 767 mmHg 47%
    14:00 +22°C° 0 mm 3 mps 766 mmHg 43%
    15:00 +21°C° 0 mm 3 mps 766 mmHg 47%
    16:00 +20°C° 0 mm 3 mps 766 mmHg 51%
    17:00 +19°C° 0 mm 3 mps 766 mmHg 55%
    18:00 +18°C° 0 mm 3 mps 767 mmHg 58%
    19:00 +17°C° 0 mm 3 mps 767 mmHg 62%
    20:00 +16°C° 0 mm 3 mps 768 mmHg 65%
    21:00 +14°C° 0 mm 3 mps 768 mmHg 66%
    22:00 +14°C° 0 mm 3 mps 768 mmHg 68%
    23:00 +13°C° 0 mm 3 mps 768 mmHg 69%

    26 May, Sunday

    Time Temperature Precipitation Wind Pressure Humidity
    00:00 +13°C° 0 mm 3 mps 768 mmHg 69%
    01:00 +12°C° 0 mm 3 mps 768 mmHg 70%
    02:00 +12°C° 0 mm 3 mps 767 mmHg 71%
    03:00 +12°C° 0 mm 3 mps 767 mmHg 72%
    04:00 +12°C° 0 mm 3 mps 767 mmHg 72%
    05:00 +11°C° 0 mm 3 mps 767 mmHg 73%
    06:00 +12°C° 0 mm 3 mps 768 mmHg 72%
    07:00 +12°C° 0 mm 3 mps 768 mmHg 70%
    08:00 +12°C° 0 mm 3 mps 768 mmHg 69%
    09:00 +14°C° 0 mm 3 mps 768 mmHg 62%
    10:00 +17°C° 0 mm 3 mps 768 mmHg 54%
    11:00 +19°C° 0 mm 3 mps 768 mmHg 46%
    12:00 +19°C° 0 mm 3 mps 767 mmHg 43%
    13:00 +20°C° 0 mm 3 mps 767 mmHg 40%
    14:00 +21°C° 0 mm 2 mps 766 mmHg 36%
    15:00 +20°C° 0 mm 2 mps 766 mmHg 38%
    16:00 +20°C° 0 mm 2 mps 766 mmHg 40%
    17:00 +19°C° 0 mm 2 mps 766 mmHg 42%
    18:00 +18°C° 0 mm 2 mps 767 mmHg 44%
    19:00 +17°C° 0 mm 2 mps 767 mmHg 47%
    20:00 +16°C° 0 mm 3 mps 767 mmHg 50%
    21:00 +14°C° 0 mm 3 mps 767 mmHg 52%
    22:00 +14°C° 0 mm 3 mps 768 mmHg 54%
    23:00 +13°C° 0 mm 3 mps 768 mmHg 56%

    27 May, Monday

    Time Temperature Precipitation Wind Pressure Humidity
    00:00 +13°C° 0 mm 3 mps 767 mmHg 57%
    01:00 +13°C° 0 mm 3 mps 767 mmHg 59%
    02:00 +12°C° 0 mm 3 mps 767 mmHg 60%
    03:00 +12°C° 0 mm 3 mps 767 mmHg 62%
    04:00 +12°C° 0 mm 3 mps 767 mmHg 63%
    05:00 +12°C° 0 mm 3 mps 767 mmHg 65%
    06:00 +12°C° 0 mm 4 mps 767 mmHg 65%
    07:00 +12°C° 0 mm 4 mps 768 mmHg 65%
    08:00 +12°C° 0 mm 4 mps 768 mmHg 65%
    09:00 +14°C° 0 mm 3 mps 768 mmHg 58%
    10:00 +17°C° 0 mm 3 mps 768 mmHg 52%
    11:00 +20°C° 0 mm 3 mps 767 mmHg 45%
    12:00 +21°C° 0 mm 3 mps 767 mmHg 42%
    13:00 +22°C° 0 mm 3 mps 766 mmHg 39%
    14:00 +24°C° 0 mm 2 mps 765 mmHg 36%
    15:00 +23°C° 0 mm 2 mps 765 mmHg 38%
    16:00 +21°C° 0 mm 2 mps 766 mmHg 41%
    17:00 +20°C° 0 mm 2 mps 766 mmHg 43%
    18:00 +19°C° 0 mm 2 mps 766 mmHg 45%
    19:00 +18°C° 0 mm 3 mps 766 mmHg 48%
    20:00 +17°C° 0 mm 3 mps 767 mmHg 50%
    21:00 +16°C° 0 mm 3 mps 767 mmHg 52%
    22:00 +16°C° 0 mm 3 mps 767 mmHg 54%
    23:00 +14°C° 0 mm 4 mps 767 mmHg 56%
    Show more